O/OREOS (USA 219)

Last updated on Mon Sep 15 2025 00:03:09 GMT+0000 (Coordinated Universal Time)

1 37224U 10062C 25257.20245768 .00001967 00000+0 19995-3 0 9990 2 37224 71.9733 344.7174 0016455 237.5025 122.4555 14.91925745 75457
UTC large
Height (km)
Speed (km/s)
/
Latitude / Longitude
Inclination (degrees)
Orbital Period (minutes)
Azimuth
Elevation
Range (km)
Doppler Factor

Next 0 passes for location: London (51.5072 / 0.1276)

Sorry there are no passes over London.